Weather History for Beatrice, NE

Change the Weather History Date:

Saturday, April 12, 2014

  Actual Average Record
Temperature  
Mean Temperature 70 °F -  
Max Temperature 82 °F 68 °F 83 °F (1968)
Min Temperature 58 °F 44 °F 15 °F (1957)
Cooling Degree Days 6    
Growing Degree Days 20 (Base 50)    
Moisture  
Dew Point 53 °F    
Average Humidity 59    
Maximum Humidity 84    
Minimum Humidity 36    
Precipitation  
Precipitation 0.00 in - - ()
Sea Level Pressure  
Sea Level Pressure 29.62 in    
Wind  
Wind Speed 12 mph (SSW)    
Max Wind Speed 23 mph    
Max Gust Speed 28 mph    
Visibility 9 miles    
Events Thunderstorm    
Averages and records for this station are not official NWS values.
T = Trace of Precipitation, MM = Missing Value Source: NWS Daily Summary

Daily Weather History Graph

Daily Weather History Graph

Search for Another Location

Airport:

Trip Planner

Search our weather history database for the weather conditions in past years. The results will help you decide how hot, cold, wet, or windy it might be!

Date:

Astronomy

Apr. 12, 2014 Rise Set
Actual Time 6:53 AM CDT 8:02 PM CDT
Civil Twilight 6:25 AM CDT 8:30 PM CDT
Nautical Twilight 5:51 AM CDT 9:04 PM CDT
Astronomical Twilight 5:17 AM CDT 9:39 PM CDT
Moon 5:42 PM CDT (4/12) 5:21 AM CDT (4/12)
Length of Visible Light 14h 05m
Length of Day
13h 09m
Waxing Gibbous, 93% of the Moon is Illuminated
Apr 12
Waxing Gibbous
Apr 15
Full
Apr 22
Last Quarter
Apr 29
New
May 6
First Quarter

Hourly Weather History & Observations

Time (CDT) Temp. Heat Index Dew Point Humidity Pressure Visibility Wind Dir Wind Speed Gust Speed Precip Events Conditions
12:15 AM 61.2 °F - 37.2 °F 41% 29.82 in 10.0 mi SE 6.9 mph - N/A   Scattered Clouds
12:35 AM 60.3 °F - 37.8 °F 43% 29.81 in 10.0 mi SSE 8.1 mph - N/A   Clear
12:55 AM 59.9 °F - 38.1 °F 44% 29.81 in 7.0 mi SSE 9.2 mph - N/A   Mostly Cloudy
1:15 AM 61.0 °F - 39.0 °F 44% 29.80 in 7.0 mi SSE 10.4 mph - N/A   Mostly Cloudy
1:35 AM 60.8 °F - 41.0 °F 48% 29.78 in 5.0 mi SSE 10.4 mph - N/A   Haze
1:55 AM 60.3 °F - 41.5 °F 50% 29.78 in 5.0 mi SSE 10.4 mph - N/A   Haze
2:15 AM 59.9 °F - 43.9 °F 55% 29.77 in 5.0 mi South 10.4 mph - N/A   Haze
2:35 AM 62.1 °F - 48.2 °F 60% 29.76 in 5.0 mi South 11.5 mph - N/A   Haze
2:55 AM 62.6 °F - 50.0 °F 63% 29.75 in 5.0 mi South 11.5 mph - N/A   Haze
3:15 AM 62.6 °F - 52.0 °F 68% 29.74 in 7.0 mi South 12.7 mph 17.3 mph N/A   Clear
3:35 AM 63.1 °F - 53.1 °F 70% 29.74 in 7.0 mi South 13.8 mph - N/A   Clear
3:55 AM 62.8 °F - 53.4 °F 71% 29.73 in 7.0 mi South 12.7 mph - N/A   Clear
3:58 AM 62.6 °F - 53.6 °F 72% 29.73 in 7.0 mi South 12.7 mph - N/A   Clear
4:15 AM 62.6 °F - 53.8 °F 73% 29.72 in 7.0 mi South 15.0 mph 21.9 mph N/A   Clear
4:19 AM 62.6 °F - 53.6 °F 72% 29.71 in 7.0 mi South 13.8 mph 21.9 mph N/A   Clear
4:35 AM 61.9 °F - 53.6 °F 74% 29.71 in 7.0 mi South 12.7 mph - N/A   Clear
4:55 AM 61.9 °F - 53.8 °F 75% 29.71 in 10.0 mi South 16.1 mph 19.6 mph N/A   Clear
4:58 AM 62.6 °F - 53.6 °F 72% 29.71 in 10.0 mi South 12.7 mph 19.6 mph N/A   Clear
5:15 AM 61.2 °F - 53.8 °F 77% 29.70 in 10.0 mi South 13.8 mph 19.6 mph N/A   Clear
5:35 AM 61.0 °F - 54.0 °F 78% 29.69 in 10.0 mi South 12.7 mph - N/A   Clear
5:55 AM 60.1 °F - 54.0 °F 80% 29.70 in 10.0 mi South 11.5 mph 17.3 mph N/A   Clear
6:15 AM 59.9 °F - 54.0 °F 81% 29.70 in 10.0 mi SSW 10.4 mph - N/A   Clear
6:19 AM 59.0 °F - 53.6 °F 82% 29.70 in 10.0 mi South 10.4 mph - N/A   Clear
6:35 AM 59.4 °F - 54.1 °F 83% 29.69 in 10.0 mi South 12.7 mph - N/A   Clear
6:55 AM 59.0 °F - 54.1 °F 84% 29.68 in 10.0 mi South 12.7 mph - N/A   Clear
6:58 AM 59.0 °F - 53.6 °F 82% 29.68 in 10.0 mi South 13.8 mph - N/A   Clear
7:15 AM 59.4 °F - 54.5 °F 84% 29.67 in 10.0 mi South 16.1 mph - N/A   Clear
7:35 AM 60.3 °F - 55.4 °F 84% 29.68 in 10.0 mi South 12.7 mph - N/A   Clear
7:55 AM 60.8 °F - 55.8 °F 83% 29.68 in 10.0 mi South 13.8 mph - N/A   Clear
8:15 AM 61.9 °F - 56.5 °F 82% 29.68 in 10.0 mi South 13.8 mph - N/A   Clear
8:18 AM 62.6 °F - 57.2 °F 82% 29.68 in 10.0 mi South 15.0 mph 20.7 mph N/A   Clear
8:35 AM 63.0 °F - 56.8 °F 80% 29.68 in 10.0 mi SSW 12.7 mph - N/A   Clear
8:38 AM 62.6 °F - 57.2 °F 82% 29.68 in 10.0 mi South 12.7 mph 17.3 mph N/A   Clear
8:55 AM 63.9 °F - 57.4 °F 79% 29.68 in 10.0 mi South 10.4 mph 19.6 mph N/A   Clear
9:15 AM 65.3 °F - 57.6 °F 76% 29.68 in 7.0 mi SSW 12.7 mph 17.3 mph N/A   Clear
9:35 AM 66.0 °F - 57.7 °F 75% 29.66 in 10.0 mi South 17.3 mph 20.7 mph N/A   Clear
9:55 AM 67.6 °F - 57.9 °F 71% 29.66 in 10.0 mi South 13.8 mph - N/A   Clear
9:58 AM 68.0 °F - 57.2 °F 68% 29.66 in 10.0 mi South 17.3 mph - N/A   Clear
10:15 AM 68.4 °F - 57.6 °F 68% 29.65 in 10.0 mi South 13.8 mph - N/A   Clear
10:35 AM 70.9 °F - 57.6 °F 63% 29.64 in 10.0 mi South 17.3 mph 24.2 mph N/A   Clear
10:55 AM 72.9 °F - 57.6 °F 59% 29.64 in 10.0 mi South 15.0 mph 19.6 mph N/A   Clear
10:58 AM 73.4 °F - 57.2 °F 57% 29.64 in 10.0 mi South 18.4 mph 21.9 mph N/A   Clear
11:15 AM 75.2 °F - 56.8 °F 53% 29.64 in 10.0 mi South 17.3 mph 23.0 mph N/A   Clear
11:35 AM 76.6 °F - 56.8 °F 50% 29.64 in 10.0 mi SSW 19.6 mph 23.0 mph N/A   Clear
11:55 AM 77.9 °F - 57.4 °F 49% 29.63 in 10.0 mi South 15.0 mph 20.7 mph N/A   Clear
12:15 PM 79.7 °F - 56.7 °F 45% 29.62 in 10.0 mi SSW 17.3 mph 25.3 mph N/A   Clear
12:35 PM 79.3 °F - 56.3 °F 45% 29.61 in 7.0 mi SSW 17.3 mph 21.9 mph N/A   Clear
12:38 PM 80.6 °F 80.5 °F 55.4 °F 42% 29.61 in 7.0 mi South 18.4 mph 23.0 mph N/A   Clear
12:55 PM 79.3 °F - 55.9 °F 44% 29.60 in 10.0 mi SSW 16.1 mph 23.0 mph N/A   Clear
1:15 PM 80.4 °F 80.6 °F 56.8 °F 44% 29.59 in 10.0 mi SSW 15.0 mph 25.3 mph N/A   Clear
1:35 PM 80.8 °F 80.7 °F 55.8 °F 42% 29.58 in 10.0 mi SSW 19.6 mph 26.5 mph N/A   Clear
1:38 PM 80.6 °F 80.5 °F 55.4 °F 42% 29.58 in 10.0 mi South 20.7 mph 26.5 mph N/A   Clear
1:55 PM 79.2 °F - 56.7 °F 46% 29.57 in 10.0 mi South 18.4 mph 25.3 mph N/A   Clear
2:15 PM 80.4 °F 80.6 °F 56.5 °F 44% 29.56 in 10.0 mi SSW 18.4 mph 25.3 mph N/A   Clear
2:35 PM 81.1 °F 81.1 °F 56.5 °F 43% 29.54 in 10.0 mi SSW 23.0 mph 27.6 mph N/A   Clear
2:55 PM 81.5 °F 81.1 °F 55.9 °F 41% 29.54 in 10.0 mi SSW 13.8 mph 26.5 mph N/A   Clear
3:15 PM 82.0 °F 81.5 °F 55.6 °F 40% 29.54 in 10.0 mi SSW 18.4 mph 21.9 mph N/A   Clear
3:35 PM 82.0 °F 81.6 °F 56.5 °F 41% 29.53 in 10.0 mi SW 18.4 mph 26.5 mph N/A   Clear
3:55 PM 81.5 °F 81.3 °F 56.5 °F 42% 29.53 in 10.0 mi SSW 11.5 mph - N/A   Scattered Clouds
4:15 PM 82.2 °F 81.5 °F 55.2 °F 39% 29.51 in 10.0 mi SSW 16.1 mph 20.7 mph N/A   Mostly Cloudy
4:35 PM 81.9 °F 81.3 °F 55.4 °F 40% 29.51 in 10.0 mi SSW 19.6 mph 24.2 mph N/A   Mostly Cloudy
4:38 PM 82.4 °F 81.7 °F 55.4 °F 39% 29.51 in 10.0 mi SSW 17.3 mph 24.2 mph N/A   Mostly Cloudy
4:55 PM 81.3 °F 80.8 °F 54.0 °F 39% 29.51 in 10.0 mi SW 16.1 mph - N/A   Mostly Cloudy
4:58 PM 80.6 °F 80.3 °F 53.6 °F 39% 29.51 in 10.0 mi SSW 16.1 mph - N/A   Scattered Clouds
5:15 PM 81.5 °F - 52.9 °F 37% 29.51 in 10.0 mi SW 13.8 mph 21.9 mph N/A   Scattered Clouds
5:35 PM 81.3 °F - 52.7 °F 37% 29.51 in 10.0 mi WSW 13.8 mph 18.4 mph N/A   Scattered Clouds
5:55 PM 81.0 °F - 52.0 °F 36% 29.51 in 10.0 mi WSW 15.0 mph - N/A   Scattered Clouds
6:15 PM 80.8 °F 80.4 °F 53.4 °F 39% 29.51 in 10.0 mi WSW 11.5 mph - N/A   Clear
6:18 PM 80.6 °F 80.3 °F 53.6 °F 39% 29.51 in 10.0 mi WSW 9.2 mph - N/A   Clear
6:35 PM 79.9 °F - 54.0 °F 41% 29.51 in 10.0 mi West 8.1 mph - N/A   Clear
6:55 PM 79.5 °F - 54.9 °F 42% 29.51 in 10.0 mi West 6.9 mph - N/A   Clear
7:15 PM 78.3 °F - 55.4 °F 45% 29.51 in 10.0 mi NW 4.6 mph - N/A   Clear
7:35 PM 75.0 °F - 55.2 °F 50% 29.51 in 10.0 mi NW 6.9 mph - N/A   Clear
7:55 PM 70.3 °F - 53.1 °F 54% 29.50 in 10.0 mi North 8.1 mph - N/A   Clear
8:15 PM 69.8 °F - 53.1 °F 55% 29.49 in 10.0 mi North 4.6 mph - N/A   Clear
8:35 PM 63.3 °F - 50.9 °F 64% 29.50 in 10.0 mi NNW 10.4 mph - N/A   Clear
8:55 PM 64.4 °F - 51.8 °F 64% 29.50 in 10.0 mi NW 11.5 mph - N/A Thunderstorm Clear
9:15 PM 64.8 °F - 51.8 °F 63% 29.51 in 10.0 mi NW 9.2 mph - N/A Thunderstorm Thunderstorm
9:18 PM 64.4 °F - 51.8 °F 64% 29.50 in 10.0 mi NW 9.2 mph - N/A Thunderstorm Clear
9:35 PM 63.3 °F - 51.4 °F 65% 29.51 in 10.0 mi NNW 8.1 mph - N/A   Clear
9:55 PM 60.8 °F - 50.0 °F 68% 29.53 in 10.0 mi North 5.8 mph - N/A   Clear
9:58 PM 62.6 °F - 50.0 °F 63% 29.53 in 10.0 mi NNE 3.5 mph - N/A   Clear
10:15 PM 65.3 °F - 52.0 °F 62% 29.55 in 10.0 mi SE 3.5 mph - N/A   Clear
10:35 PM 67.1 °F - 51.6 °F 57% 29.55 in 10.0 mi ESE 3.5 mph - N/A   Clear
10:55 PM 65.5 °F - 52.2 °F 62% 29.55 in 10.0 mi SSE 3.5 mph - N/A   Clear
10:58 PM 66.2 °F - 51.8 °F 60% 29.55 in 10.0 mi SSE 3.5 mph - N/A   Clear
11:15 PM 63.0 °F - 51.6 °F 66% 29.55 in 10.0 mi Calm Calm - N/A   Clear
11:18 PM 64.4 °F - 51.8 °F 64% 29.55 in 10.0 mi Calm Calm - N/A   Clear
11:35 PM 59.5 °F - 50.0 °F 71% 29.56 in 10.0 mi SSW 3.5 mph - N/A   Clear
11:38 PM 59.0 °F - 50.0 °F 72% 29.56 in 10.0 mi SSW 3.5 mph - N/A   Clear
11:55 PM 58.6 °F - 50.2 °F 73% 29.56 in 10.0 mi Calm Calm - N/A   Mostly Cloudy